Time,TemperatureF,DewpointF,PressureIn,WindDirection,WindDirectionDegrees,WindSpeedMPH,WindSpeedGustMPH,Humidity,HourlyPrecipIn,Conditions,Clouds,dailyrainin,SoftwareType,DateUTC
2013-04-22 00:00:00,31.8,27.5,30.73,SW,216,0.0,1.0,84,0.00,,,0.00,meteohub,2013-04-22 04:00:00,
2013-04-22 00:01:00,31.8,27.5,30.73,SW,216,0.0,1.0,84,0.00,,,0.00,meteohub,2013-04-22 04:01:00,
2013-04-22 00:02:00,31.6,27.3,30.73,SW,216,0.0,1.0,84,0.00,,,0.00,meteohub,2013-04-22 04:02:00,
2013-04-22 00:03:00,31.6,27.3,30.73,SW,216,0.0,1.0,84,0.00,,,0.00,meteohub,2013-04-22 04:03:00,
2013-04-22 00:08:00,31.5,27.5,30.73,SW,216,0.0,0.0,85,0.00,,,0.00,meteohub,2013-04-22 04:08:00,
2013-04-22 00:13:00,31.3,27.3,30.72,SW,216,0.0,1.0,85,0.00,,,0.00,meteohub,2013-04-22 04:13:00,
2013-04-22 00:18:00,31.3,27.3,30.73,SW,216,0.0,1.0,85,0.00,,,0.00,meteohub,2013-04-22 04:18:00,
2013-04-22 00:24:00,31.3,27.5,30.72,SW,216,0.0,1.0,86,0.00,,,0.00,meteohub,2013-04-22 04:24:00,
2013-04-22 00:29:00,31.3,27.5,30.72,SW,216,1.0,1.0,86,0.00,,,0.00,meteohub,2013-04-22 04:29:00,
2013-04-22 00:34:00,31.3,27.5,30.72,SW,216,0.0,1.0,86,0.00,,,0.00,meteohub,2013-04-22 04:34:00,
2013-04-22 00:39:00,31.1,27.3,30.72,SW,216,0.0,1.0,86,0.00,,,0.00,meteohub,2013-04-22 04:39:00,
2013-04-22 00:44:00,31.1,27.7,30.72,SW,216,0.0,1.0,87,0.00,,,0.00,meteohub,2013-04-22 04:44:00,
2013-04-22 00:49:00,30.9,27.5,30.72,SW,216,0.0,1.0,87,0.00,,,0.00,meteohub,2013-04-22 04:49:00,
2013-04-22 00:54:00,30.9,27.5,30.72,SW,216,0.0,1.0,87,0.00,,,0.00,meteohub,2013-04-22 04:54:00,
2013-04-22 00:59:00,30.9,27.9,30.72,SW,216,0.0,1.0,88,0.00,,,0.00,meteohub,2013-04-22 04:59:00,
2013-04-22 01:04:00,30.9,27.9,30.72,SW,216,0.0,1.0,88,0.00,,,0.00,meteohub,2013-04-22 05:04:00,
2013-04-22 01:09:00,30.7,27.7,30.72,SW,216,0.0,0.0,88,0.00,,,0.00,meteohub,2013-04-22 05:09:00,
2013-04-22 01:14:00,30.9,27.9,30.72,SW,216,0.0,0.0,88,0.00,,,0.00,meteohub,2013-04-22 05:14:00,
2013-04-22 01:19:00,30.7,27.7,30.72,SW,216,0.0,0.0,88,0.00,,,0.00,meteohub,2013-04-22 05:19:00,
2013-04-22 01:24:00,30.7,27.9,30.72,SW,216,0.0,0.0,89,0.00,,,0.00,meteohub,2013-04-22 05:24:00,
2013-04-22 01:30:00,30.7,27.9,30.71,SW,216,0.0,0.0,89,0.00,,,0.00,meteohub,2013-04-22 05:30:00,
2013-04-22 01:35:00,30.7,27.9,30.71,SW,216,0.0,0.0,89,0.00,,,0.00,meteohub,2013-04-22 05:35:00,
2013-04-22 01:40:00,30.6,27.7,30.71,SW,216,0.0,0.0,89,0.00,,,0.00,meteohub,2013-04-22 05:40:00,
2013-04-22 01:45:00,30.6,27.7,30.71,SW,216,0.0,0.0,89,0.00,,,0.00,meteohub,2013-04-22 05:45:00,
2013-04-22 01:50:00,30.6,27.7,30.71,SW,216,0.0,0.0,89,0.00,,,0.00,meteohub,2013-04-22 05:50:00,
2013-04-22 01:55:00,30.6,27.7,30.71,SW,216,0.0,1.0,89,0.00,,,0.00,meteohub,2013-04-22 05:55:00,
2013-04-22 02:00:00,30.4,27.5,30.71,SW,216,0.0,1.0,89,0.00,,,0.00,meteohub,2013-04-22 06:00:00,
2013-04-22 02:05:00,30.2,27.3,30.71,SW,216,0.0,0.0,89,0.00,,,0.00,meteohub,2013-04-22 06:05:00,
2013-04-22 02:10:00,30.0,27.1,30.71,SW,216,0.0,0.0,89,0.00,,,0.00,meteohub,2013-04-22 06:10:00,
2013-04-22 02:15:00,30.0,27.5,30.71,SW,216,0.0,1.0,90,0.00,,,0.00,meteohub,2013-04-22 06:15:00,
2013-04-22 02:20:00,30.0,27.5,30.72,SW,216,0.0,1.0,90,0.00,,,0.00,meteohub,2013-04-22 06:20:00,
2013-04-22 02:25:00,30.0,27.5,30.72,SW,216,0.0,1.0,90,0.00,,,0.00,meteohub,2013-04-22 06:25:00,
2013-04-22 02:30:00,30.0,27.5,30.72,SW,216,0.0,0.0,90,0.00,,,0.00,meteohub,2013-04-22 06:30:00,
2013-04-22 02:35:00,30.0,27.5,30.72,SW,216,0.0,0.0,90,0.00,,,0.00,meteohub,2013-04-22 06:35:00,
2013-04-22 02:40:00,29.8,27.3,30.72,SW,216,0.0,0.0,90,0.00,,,0.00,meteohub,2013-04-22 06:40:00,
2013-04-22 02:46:00,29.8,27.3,30.72,SW,216,0.0,1.0,90,0.00,,,0.00,meteohub,2013-04-22 06:46:00,
2013-04-22 02:51:00,29.8,27.3,30.72,SW,216,0.0,1.0,90,0.00,,,0.00,meteohub,2013-04-22 06:51:00,
2013-04-22 02:56:00,29.8,27.3,30.72,SW,216,0.0,1.0,90,0.00,,,0.00,meteohub,2013-04-22 06:56:00,
2013-04-22 03:01:00,29.7,27.3,30.72,SW,216,1.0,1.0,91,0.00,,,0.00,meteohub,2013-04-22 07:01:00,
2013-04-22 03:06:00,29.8,27.5,30.72,SW,216,1.0,1.0,91,0.00,,,0.00,meteohub,2013-04-22 07:06:00,
2013-04-22 03:11:00,29.8,27.5,30.72,SW,216,0.0,2.0,91,0.00,,,0.00,meteohub,2013-04-22 07:11:00,
2013-04-22 03:16:00,29.8,27.5,30.72,SW,216,0.0,2.0,91,0.00,,,0.00,meteohub,2013-04-22 07:16:00,
2013-04-22 03:21:00,29.8,27.5,30.73,SW,216,0.0,2.0,91,0.00,,,0.00,meteohub,2013-04-22 07:21:00,
2013-04-22 03:26:00,29.8,27.5,30.73,SW,216,0.0,1.0,91,0.00,,,0.00,meteohub,2013-04-22 07:26:00,
2013-04-22 03:31:00,29.8,27.5,30.73,SW,216,0.0,1.0,91,0.00,,,0.00,meteohub,2013-04-22 07:31:00,
2013-04-22 03:36:00,29.8,27.5,30.73,SW,216,0.0,1.0,91,0.00,,,0.00,meteohub,2013-04-22 07:36:00,
2013-04-22 03:41:00,29.8,27.5,30.73,SW,216,0.0,1.0,91,0.00,,,0.00,meteohub,2013-04-22 07:41:00,
2013-04-22 03:46:00,29.8,27.5,30.73,SW,216,0.0,1.0,91,0.00,,,0.00,meteohub,2013-04-22 07:46:00,
2013-04-22 03:51:00,29.8,27.9,30.73,SW,216,0.0,1.0,92,0.00,,,0.00,meteohub,2013-04-22 07:51:00,
2013-04-22 03:56:00,30.0,28.0,30.73,SW,216,0.0,1.0,92,0.00,,,0.00,meteohub,2013-04-22 07:56:00,
2013-04-22 04:02:00,30.2,28.2,30.73,SW,216,0.0,1.0,92,0.00,,,0.00,meteohub,2013-04-22 08:02:00,
2013-04-22 04:07:00,30.2,28.2,30.73,SW,216,0.0,1.0,92,0.00,,,0.00,meteohub,2013-04-22 08:07:00,
2013-04-22 04:12:00,30.2,28.2,30.73,SW,216,0.0,1.0,92,0.00,,,0.00,meteohub,2013-04-22 08:12:00,
2013-04-22 04:17:00,30.4,28.4,30.73,SW,216,0.0,1.0,92,0.00,,,0.00,meteohub,2013-04-22 08:17:00,
2013-04-22 04:22:00,30.4,28.4,30.73,SW,216,0.0,0.0,92,0.00,,,0.00,meteohub,2013-04-22 08:22:00,
2013-04-22 04:27:00,30.6,28.6,30.73,SW,216,0.0,0.0,92,0.00,,,0.00,meteohub,2013-04-22 08:27:00,
2013-04-22 04:32:00,30.7,28.8,30.73,SW,216,0.0,1.0,92,0.00,,,0.00,meteohub,2013-04-22 08:32:00,
2013-04-22 04:37:00,30.9,28.9,30.73,SW,216,0.0,1.0,92,0.00,,,0.00,meteohub,2013-04-22 08:37:00,
2013-04-22 04:42:00,31.3,29.5,30.73,SW,216,0.0,1.0,93,0.00,,,0.00,meteohub,2013-04-22 08:42:00,
2013-04-22 04:47:00,31.6,29.8,30.73,SW,216,1.0,1.0,93,0.00,,,0.00,meteohub,2013-04-22 08:47:00,
2013-04-22 04:52:00,32.4,30.6,30.74,SW,216,2.0,2.0,93,0.00,,,0.00,meteohub,2013-04-22 08:52:00,
2013-04-22 04:57:00,33.4,31.6,30.74,East,92,0.0,5.0,93,0.00,,,0.00,meteohub,2013-04-22 08:57:00,
2013-04-22 05:02:00,34.2,32.4,30.74,ENE,76,1.0,5.0,93,0.00,,,0.00,meteohub,2013-04-22 09:02:00,
2013-04-22 05:07:00,35.2,33.1,30.74,East,94,1.0,5.0,92,0.00,,,0.00,meteohub,2013-04-22 09:07:00,
2013-04-22 05:12:00,36.0,33.3,30.74,East,94,0.0,5.0,90,0.00,,,0.00,meteohub,2013-04-22 09:12:00,
2013-04-22 05:17:00,36.5,33.6,30.73,ESE,117,1.0,5.0,89,0.00,,,0.00,meteohub,2013-04-22 09:17:00,
2013-04-22 05:22:00,37.2,34.3,30.74,SE,130,1.0,5.0,89,0.00,,,0.00,meteohub,2013-04-22 09:22:00,
2013-04-22 05:27:00,37.9,34.3,30.73,ENE,77,1.0,5.0,87,0.00,,,0.00,meteohub,2013-04-22 09:27:00,
2013-04-22 05:32:00,38.3,34.2,30.74,ESE,117,2.0,5.0,85,0.00,,,0.00,meteohub,2013-04-22 09:32:00,
2013-04-22 05:37:00,38.7,34.5,30.74,East,95,0.0,5.0,85,0.00,,,0.00,meteohub,2013-04-22 09:37:00,
2013-04-22 05:42:00,38.8,34.3,30.74,ESE,114,4.0,6.0,84,0.00,,,0.00,meteohub,2013-04-22 09:42:00,
2013-04-22 05:47:00,39.2,34.5,30.74,East,81,2.0,8.0,83,0.00,,,0.00,meteohub,2013-04-22 09:47:00,
2013-04-22 05:52:00,39.4,34.7,30.74,ENE,69,3.0,8.0,83,0.00,,,0.00,meteohub,2013-04-22 09:52:00,
2013-04-22 05:57:00,39.4,34.7,30.74,ENE,59,2.0,8.0,83,0.00,,,0.00,meteohub,2013-04-22 09:57:00,
2013-04-22 06:02:00,39.6,34.9,30.74,ENE,64,2.0,6.0,83,0.00,,,0.00,meteohub,2013-04-22 10:02:00,
2013-04-22 06:07:00,39.6,34.9,30.74,East,90,2.0,6.0,83,0.00,,,0.00,meteohub,2013-04-22 10:07:00,
2013-04-22 06:12:00,39.7,35.1,30.74,ENE,71,2.0,6.0,83,0.00,,,0.00,meteohub,2013-04-22 10:12:00,
2013-04-22 06:17:00,39.7,35.1,30.74,East,83,0.0,6.0,83,0.00,,,0.00,meteohub,2013-04-22 10:17:00,
2013-04-22 06:22:00,39.7,35.1,30.74,East,98,2.0,6.0,83,0.00,,,0.00,meteohub,2013-04-22 10:22:00,
2013-04-22 06:27:00,39.9,35.2,30.74,ESE,102,1.0,5.0,83,0.00,,,0.00,meteohub,2013-04-22 10:27:00,
2013-04-22 06:32:00,39.9,35.2,30.74,East,88,1.0,5.0,83,0.00,,,0.00,meteohub,2013-04-22 10:32:00,
2013-04-22 06:37:00,40.3,35.2,30.74,ESE,119,3.0,6.0,82,0.00,,,0.00,meteohub,2013-04-22 10:37:00,
2013-04-22 06:42:00,40.6,35.2,30.74,East,81,3.0,8.0,81,0.00,,,0.00,meteohub,2013-04-22 10:42:00,
2013-04-22 06:47:00,40.8,35.4,30.74,East,99,2.0,10.0,81,0.00,,,0.00,meteohub,2013-04-22 10:47:00,
2013-04-22 06:52:00,41.2,35.4,30.74,East,82,2.0,10.0,80,0.00,,,0.00,meteohub,2013-04-22 10:52:00,
2013-04-22 06:57:00,41.4,35.4,30.75,NE,46,3.0,10.0,79,0.00,,,0.00,meteohub,2013-04-22 10:57:00,
2013-04-22 07:02:00,41.7,35.1,30.74,East,84,2.0,7.0,77,0.00,,,0.00,meteohub,2013-04-22 11:02:00,
2013-04-22 07:07:00,41.9,34.9,30.75,ESE,104,0.0,7.0,76,0.00,,,0.00,meteohub,2013-04-22 11:07:00,
2013-04-22 07:12:00,42.1,35.1,30.75,SE,136,2.0,7.0,76,0.00,,,0.00,meteohub,2013-04-22 11:12:00,
2013-04-22 07:17:00,42.3,34.9,30.76,SSE,152,2.0,8.0,75,0.00,,,0.00,meteohub,2013-04-22 11:17:00,
2013-04-22 07:22:00,42.6,34.9,30.76,NE,35,3.0,8.0,74,0.00,,,0.00,meteohub,2013-04-22 11:22:00,
2013-04-22 07:27:00,43.0,35.2,30.76,ENE,74,1.0,8.0,74,0.00,,,0.00,meteohub,2013-04-22 11:27:00,
2013-04-22 07:32:00,43.3,34.9,30.76,NNE,16,3.0,5.0,72,0.00,,,0.00,meteohub,2013-04-22 11:32:00,
2013-04-22 07:37:00,43.7,34.9,30.76,East,81,1.0,7.0,71,0.00,,,0.00,meteohub,2013-04-22 11:37:00,
2013-04-22 07:42:00,44.2,35.1,30.76,ENE,76,3.0,7.0,70,0.00,,,0.00,meteohub,2013-04-22 11:42:00,
2013-04-22 07:47:00,44.4,34.5,30.76,East,99,1.0,6.0,68,0.00,,,0.00,meteohub,2013-04-22 11:47:00,
2013-04-22 07:52:00,44.4,33.8,30.76,SSW,211,4.0,9.0,66,0.00,,,0.00,meteohub,2013-04-22 11:52:00,
2013-04-22 07:57:00,44.6,34.0,30.76,SE,127,1.0,9.0,66,0.00,,,0.00,meteohub,2013-04-22 11:57:00,
2013-04-22 08:02:00,45.0,34.3,30.76,ENE,61,0.0,9.0,66,0.00,,,0.00,meteohub,2013-04-22 12:02:00,
2013-04-22 08:07:00,45.0,34.3,30.75,ESE,115,2.0,11.0,66,0.00,,,0.00,meteohub,2013-04-22 12:07:00,
2013-04-22 08:12:00,45.0,33.4,30.75,SSE,151,3.0,11.0,64,0.00,,,0.00,meteohub,2013-04-22 12:12:00,
2013-04-22 08:17:00,45.0,34.0,30.74,East,94,3.0,9.0,65,0.00,,,0.00,meteohub,2013-04-22 12:17:00,
2013-04-22 08:22:00,45.1,33.6,30.74,NE,49,5.0,9.0,64,0.00,,,0.00,meteohub,2013-04-22 12:22:00,
2013-04-22 08:27:00,45.3,31.8,30.74,WSW,246,5.0,9.0,59,0.00,,,0.00,meteohub,2013-04-22 12:27:00,
2013-04-22 08:32:00,45.3,30.9,30.74,East,96,2.0,15.0,57,0.00,,,0.00,meteohub,2013-04-22 12:32:00,
2013-04-22 08:37:00,45.7,30.9,30.74,South,169,4.0,15.0,56,0.00,,,0.00,meteohub,2013-04-22 12:37:00,
2013-04-22 08:42:00,46.0,29.8,30.74,SW,218,5.0,15.0,53,0.00,,,0.00,meteohub,2013-04-22 12:42:00,
2013-04-22 08:47:00,46.0,29.5,30.75,SSW,192,3.0,10.0,52,0.00,,,0.00,meteohub,2013-04-22 12:47:00,
2013-04-22 08:52:00,46.2,30.0,30.75,SSE,154,5.0,10.0,53,0.00,,,0.00,meteohub,2013-04-22 12:52:00,
2013-04-22 08:57:00,46.6,28.9,30.75,SW,232,2.0,8.0,50,0.00,,,0.00,meteohub,2013-04-22 12:57:00,
2013-04-22 09:02:00,46.6,28.4,30.75,West,265,9.0,9.0,49,0.00,,,0.00,meteohub,2013-04-22 13:02:00,
2013-04-22 09:07:00,46.9,28.8,30.75,WSW,247,2.0,13.0,49,0.00,,,0.00,meteohub,2013-04-22 13:07:00,
2013-04-22 09:12:00,47.1,27.9,30.75,SW,225,5.0,13.0,47,0.00,,,0.00,meteohub,2013-04-22 13:12:00,
2013-04-22 09:17:00,47.1,28.9,30.76,SW,217,2.0,12.0,49,0.00,,,0.00,meteohub,2013-04-22 13:17:00,
2013-04-22 09:22:00,47.5,28.8,30.76,WSW,244,5.0,12.0,48,0.00,,,0.00,meteohub,2013-04-22 13:22:00,
2013-04-22 09:27:00,47.7,30.0,30.77,WSW,248,8.0,15.0,50,0.00,,,0.00,meteohub,2013-04-22 13:27:00,
2013-04-22 09:32:00,47.8,28.6,30.77,WSW,246,2.0,15.0,47,0.00,,,0.00,meteohub,2013-04-22 13:32:00,
2013-04-22 09:37:00,48.0,28.2,30.78,WSW,247,10.0,15.0,46,0.00,,,0.00,meteohub,2013-04-22 13:37:00,
2013-04-22 09:42:00,47.5,28.8,30.78,SW,221,4.0,17.0,48,0.00,,,0.00,meteohub,2013-04-22 13:42:00,
2013-04-22 09:47:00,47.5,28.8,30.77,WSW,238,5.0,17.0,48,0.00,,,0.00,meteohub,2013-04-22 13:47:00,
2013-04-22 09:52:00,47.8,29.1,30.77,SSW,208,2.0,17.0,48,0.00,,,0.00,meteohub,2013-04-22 13:52:00,
2013-04-22 09:57:00,48.4,30.0,30.77,NW,308,3.0,10.0,49,0.00,,,0.00,meteohub,2013-04-22 13:57:00,
2013-04-22 10:02:00,48.7,30.9,30.77,SW,215,7.0,9.0,50,0.00,,,0.00,meteohub,2013-04-22 14:02:00,
2013-04-22 10:07:00,48.6,31.3,30.77,SW,236,3.0,12.0,51,0.00,,,0.00,meteohub,2013-04-22 14:07:00,
2013-04-22 10:12:00,48.6,31.3,30.78,SE,141,4.0,15.0,51,0.00,,,0.00,meteohub,2013-04-22 14:12:00,
2013-04-22 10:17:00,48.6,31.3,30.78,SSW,208,4.0,21.0,51,0.00,,,0.00,meteohub,2013-04-22 14:17:00,
2013-04-22 10:22:00,48.7,31.5,30.78,SW,215,7.0,21.0,51,0.00,,,0.00,meteohub,2013-04-22 14:22:00,
2013-04-22 10:27:00,48.6,30.2,30.78,SW,226,8.0,10.0,49,0.00,,,0.00,meteohub,2013-04-22 14:27:00,
2013-04-22 10:32:00,48.6,31.8,30.78,South,188,2.0,14.0,52,0.00,,,0.00,meteohub,2013-04-22 14:32:00,
2013-04-22 10:37:00,49.1,31.3,30.78,SE,124,3.0,14.0,50,0.00,,,0.00,meteohub,2013-04-22 14:37:00,
2013-04-22 10:42:00,48.9,31.1,30.78,SW,232,7.0,14.0,50,0.00,,,0.00,meteohub,2013-04-22 14:42:00,
2013-04-22 10:47:00,49.5,31.1,30.78,SW,232,3.0,10.0,49,0.00,,,0.00,meteohub,2013-04-22 14:47:00,
2013-04-22 10:52:00,49.6,30.2,30.78,SW,216,5.0,12.0,47,0.00,,,0.00,meteohub,2013-04-22 14:52:00,
2013-04-22 10:57:00,49.3,29.3,30.77,SW,229,12.0,12.0,46,0.00,,,0.00,meteohub,2013-04-22 14:57:00,
2013-04-22 11:02:00,49.3,29.8,30.77,SSW,207,6.0,15.0,47,0.00,,,0.00,meteohub,2013-04-22 15:02:00,
2013-04-22 11:07:00,50.0,28.9,30.78,ESE,107,4.0,15.0,44,0.00,,,0.00,meteohub,2013-04-22 15:07:00,
2013-04-22 11:12:00,49.6,28.6,30.77,ENE,58,10.0,15.0,44,0.00,,,0.00,meteohub,2013-04-22 15:12:00,
2013-04-22 11:17:00,49.5,28.9,30.77,East,81,3.0,11.0,45,0.00,,,0.00,meteohub,2013-04-22 15:17:00,
2013-04-22 11:22:00,49.3,28.8,30.77,SSW,213,5.0,11.0,45,0.00,,,0.00,meteohub,2013-04-22 15:22:00,
2013-04-22 11:27:00,49.6,30.2,30.75,SSW,208,7.0,11.0,47,0.00,,,0.00,meteohub,2013-04-22 15:27:00,
2013-04-22 11:32:00,50.2,29.7,30.75,ESE,119,1.0,15.0,45,0.00,,,0.00,meteohub,2013-04-22 15:32:00,
2013-04-22 11:37:00,50.4,29.3,30.75,South,182,3.0,15.0,44,0.00,,,0.00,meteohub,2013-04-22 15:37:00,
2013-04-22 11:42:00,50.7,29.7,30.76,SSW,202,6.0,10.0,44,0.00,,,0.00,meteohub,2013-04-22 15:42:00,
2013-04-22 11:47:00,50.4,29.8,30.75,SE,132,1.0,11.0,45,0.00,,,0.00,meteohub,2013-04-22 15:47:00,
2013-04-22 11:52:00,50.4,28.8,30.75,ESE,104,4.0,12.0,43,0.00,,,0.00,meteohub,2013-04-22 15:52:00,
2013-04-22 11:57:00,50.4,28.8,30.74,ENE,65,3.0,12.0,43,0.00,,,0.00,meteohub,2013-04-22 15:57:00,
2013-04-22 12:02:00,50.5,29.5,30.74,WSW,240,7.0,12.0,44,0.00,,,0.00,meteohub,2013-04-22 16:02:00,
2013-04-22 12:07:00,50.7,30.7,30.75,SSE,158,1.0,12.0,46,0.00,,,0.00,meteohub,2013-04-22 16:07:00,
2013-04-22 12:12:00,51.3,30.0,30.75,SW,217,1.0,12.0,44,0.00,,,0.00,meteohub,2013-04-22 16:12:00,
2013-04-22 12:17:00,50.7,30.2,30.75,East,96,2.0,12.0,45,0.00,,,0.00,meteohub,2013-04-22 16:17:00,
2013-04-22 12:22:00,50.5,31.6,30.75,WNW,302,2.0,12.0,48,0.00,,,0.00,meteohub,2013-04-22 16:22:00,
2013-04-22 12:27:00,49.6,32.2,30.74,SSW,209,8.0,16.0,51,0.00,,,0.00,meteohub,2013-04-22 16:27:00,
2013-04-22 12:32:00,49.6,32.7,30.74,WSW,245,7.0,16.0,52,0.00,,,0.00,meteohub,2013-04-22 16:32:00,
2013-04-22 12:37:00,50.5,33.1,30.74,SE,144,6.0,16.0,51,0.00,,,0.00,meteohub,2013-04-22 16:37:00,
2013-04-22 12:42:00,51.1,33.1,30.74,SW,223,9.0,14.0,50,0.00,,,0.00,meteohub,2013-04-22 16:42:00,
2013-04-22 12:47:00,50.7,33.3,30.74,SSW,198,5.0,14.0,51,0.00,,,0.00,meteohub,2013-04-22 16:47:00,
2013-04-22 12:52:00,50.2,34.2,30.74,WSW,240,2.0,16.0,54,0.00,,,0.00,meteohub,2013-04-22 16:52:00,
2013-04-22 12:57:00,50.4,34.9,30.74,WSW,238,6.0,16.0,55,0.00,,,0.00,meteohub,2013-04-22 16:57:00,
2013-04-22 13:02:00,50.0,35.4,30.74,ENE,61,1.0,16.0,57,0.00,,,0.00,meteohub,2013-04-22 17:02:00,
2013-04-22 13:07:00,50.2,34.7,30.74,NNE,22,2.0,10.0,55,0.00,,,0.00,meteohub,2013-04-22 17:07:00,
2013-04-22 13:12:00,49.6,34.5,30.75,SW,219,11.0,11.0,56,0.00,,,0.00,meteohub,2013-04-22 17:12:00,
2013-04-22 13:17:00,48.7,36.0,30.75,SW,227,2.0,13.0,61,0.00,,,0.00,meteohub,2013-04-22 17:17:00,
2013-04-22 13:22:00,48.6,36.1,30.75,South,174,3.0,13.0,62,0.00,,,0.00,meteohub,2013-04-22 17:22:00,
2013-04-22 13:27:00,47.8,36.7,30.74,SW,222,5.0,19.0,65,0.00,,,0.00,meteohub,2013-04-22 17:27:00,
2013-04-22 13:32:00,47.7,37.6,30.74,SSW,204,2.0,19.0,68,0.00,,,0.00,meteohub,2013-04-22 17:32:00,
2013-04-22 13:37:00,47.8,37.0,30.73,SSW,211,8.0,19.0,66,0.00,,,0.00,meteohub,2013-04-22 17:37:00,
2013-04-22 13:42:00,48.4,37.6,30.73,ENE,59,2.0,16.0,66,0.00,,,0.00,meteohub,2013-04-22 17:42:00,
2013-04-22 13:47:00,48.7,36.7,30.74,West,268,4.0,14.0,63,0.00,,,0.00,meteohub,2013-04-22 17:47:00,
2013-04-22 13:52:00,48.4,37.2,30.74,SSW,210,7.0,16.0,65,0.00,,,0.00,meteohub,2013-04-22 17:52:00,
2013-04-22 13:57:00,47.5,36.3,30.74,SW,232,11.0,16.0,65,0.00,,,0.00,meteohub,2013-04-22 17:57:00,
2013-04-22 14:02:00,47.3,36.5,30.74,WSW,238,7.0,16.0,66,0.00,,,0.00,meteohub,2013-04-22 18:02:00,
2013-04-22 14:07:00,46.9,36.9,30.74,WSW,257,8.0,14.0,68,0.00,,,0.00,meteohub,2013-04-22 18:07:00,
2013-04-22 14:12:00,46.9,36.5,30.74,East,89,2.0,14.0,67,0.00,,,0.00,meteohub,2013-04-22 18:12:00,
2013-04-22 14:17:00,46.8,36.7,30.74,SW,234,16.0,16.0,68,0.00,,,0.00,meteohub,2013-04-22 18:17:00,
2013-04-22 14:22:00,46.4,36.0,30.74,SW,226,9.0,16.0,67,0.00,,,0.00,meteohub,2013-04-22 18:22:00,
2013-04-22 14:27:00,46.0,36.5,30.73,SW,215,9.0,20.0,69,0.00,,,0.00,meteohub,2013-04-22 18:27:00,
2013-04-22 14:32:00,46.0,36.1,30.71,SSW,198,3.0,20.0,68,0.00,,,0.00,meteohub,2013-04-22 18:32:00,
2013-04-22 14:37:00,46.2,36.3,30.72,WSW,238,2.0,20.0,68,0.00,,,0.00,meteohub,2013-04-22 18:37:00,
2013-04-22 14:42:00,46.0,36.1,30.71,SW,231,8.0,15.0,68,0.00,,,0.00,meteohub,2013-04-22 18:42:00,
2013-04-22 14:47:00,46.2,36.7,30.71,SW,215,6.0,15.0,69,0.00,,,0.00,meteohub,2013-04-22 18:47:00,
2013-04-22 14:52:00,45.9,36.3,30.71,SW,227,8.0,15.0,69,0.00,,,0.00,meteohub,2013-04-22 18:52:00,
2013-04-22 14:57:00,45.9,36.0,30.71,SSW,194,6.0,16.0,68,0.00,,,0.00,meteohub,2013-04-22 18:57:00,
2013-04-22 15:02:00,46.0,36.1,30.70,SW,220,5.0,16.0,68,0.00,,,0.00,meteohub,2013-04-22 19:02:00,
2013-04-22 15:07:00,46.0,36.1,30.70,ESE,102,1.0,16.0,68,0.00,,,0.00,meteohub,2013-04-22 19:07:00,
2013-04-22 15:12:00,46.0,35.8,30.70,ESE,117,2.0,12.0,67,0.00,,,0.00,meteohub,2013-04-22 19:12:00,
2013-04-22 15:17:00,46.4,36.0,30.69,SSW,205,2.0,12.0,67,0.00,,,0.00,meteohub,2013-04-22 19:17:00,
2013-04-22 15:22:00,46.6,35.8,30.70,SSW,205,4.0,12.0,66,0.00,,,0.00,meteohub,2013-04-22 19:22:00,
2013-04-22 15:27:00,46.2,36.0,30.70,SW,219,9.0,15.0,67,0.00,,,0.00,meteohub,2013-04-22 19:27:00,
2013-04-22 15:32:00,46.0,34.9,30.71,WSW,255,6.0,15.0,65,0.00,,,0.00,meteohub,2013-04-22 19:32:00,
2013-04-22 15:37:00,45.9,35.1,30.70,SSW,200,3.0,15.0,66,0.00,,,0.00,meteohub,2013-04-22 19:37:00,
2013-04-22 15:42:00,45.7,35.1,30.71,SW,217,3.0,14.0,66,0.00,,,0.00,meteohub,2013-04-22 19:42:00,
2013-04-22 15:47:00,45.7,35.1,30.70,SW,223,6.0,14.0,66,0.00,,,0.00,meteohub,2013-04-22 19:47:00,
2013-04-22 15:52:00,45.9,36.0,30.70,SW,224,2.0,14.0,68,0.00,,,0.00,meteohub,2013-04-22 19:52:00,
2013-04-22 15:57:00,45.7,35.8,30.70,WSW,250,6.0,14.0,68,0.00,,,0.00,meteohub,2013-04-22 19:57:00,
2013-04-22 16:02:00,45.7,36.1,30.70,WSW,244,2.0,12.0,69,0.00,,,0.00,meteohub,2013-04-22 20:02:00,
2013-04-22 16:07:00,45.7,36.1,30.70,SSW,194,5.0,12.0,69,0.00,,,0.00,meteohub,2013-04-22 20:07:00,
2013-04-22 16:12:00,45.7,36.1,30.70,SW,221,2.0,12.0,69,0.00,,,0.00,meteohub,2013-04-22 20:12:00,
2013-04-22 16:17:00,45.7,36.1,30.70,South,187,5.0,8.0,69,0.00,,,0.00,meteohub,2013-04-22 20:17:00,
2013-04-22 16:22:00,45.5,36.3,30.69,SW,225,3.0,11.0,70,0.00,,,0.00,meteohub,2013-04-22 20:22:00,
2013-04-22 16:27:00,45.3,36.1,30.69,SW,215,3.0,11.0,70,0.00,,,0.00,meteohub,2013-04-22 20:27:00,
2013-04-22 16:32:00,45.3,36.5,30.69,SSW,208,4.0,11.0,71,0.00,,,0.00,meteohub,2013-04-22 20:32:00,
2013-04-22 16:37:00,45.3,36.9,30.69,SW,214,3.0,11.0,72,0.00,,,0.00,meteohub,2013-04-22 20:37:00,
2013-04-22 16:42:00,45.1,36.3,30.69,SW,227,3.0,14.0,71,0.00,,,0.00,meteohub,2013-04-22 20:42:00,
2013-04-22 16:47:00,45.1,36.0,30.69,ENE,70,2.0,14.0,70,0.00,,,0.00,meteohub,2013-04-22 20:47:00,
2013-04-22 16:52:00,45.1,35.6,30.69,South,185,3.0,14.0,69,0.00,,,0.00,meteohub,2013-04-22 20:52:00,
2013-04-22 16:57:00,45.1,36.0,30.69,ENE,71,1.0,8.0,70,0.00,,,0.00,meteohub,2013-04-22 20:57:00,
2013-04-22 17:02:00,45.0,35.4,30.69,SSW,211,2.0,7.0,69,0.00,,,0.00,meteohub,2013-04-22 21:02:00,
2013-04-22 17:07:00,44.8,34.9,30.69,SSE,166,5.0,8.0,68,0.00,,,0.00,meteohub,2013-04-22 21:07:00,
2013-04-22 17:12:00,44.4,34.5,30.69,East,91,1.0,8.0,68,0.00,,,0.00,meteohub,2013-04-22 21:12:00,
2013-04-22 17:17:00,44.4,34.9,30.69,SW,232,4.0,8.0,69,0.00,,,0.00,meteohub,2013-04-22 21:17:00,
2013-04-22 17:22:00,44.4,35.2,30.70,SW,217,3.0,8.0,70,0.00,,,0.00,meteohub,2013-04-22 21:22:00,
2013-04-22 17:27:00,44.2,35.1,30.69,ENE,61,1.0,13.0,70,0.00,,,0.00,meteohub,2013-04-22 21:27:00,
2013-04-22 17:32:00,44.1,34.9,30.69,SW,217,3.0,13.0,70,0.00,,,0.00,meteohub,2013-04-22 21:32:00,
2013-04-22 17:37:00,44.1,35.2,30.69,ENE,71,3.0,13.0,71,0.00,,,0.00,meteohub,2013-04-22 21:37:00,
2013-04-22 17:42:00,43.9,34.7,30.69,SSW,198,0.0,8.0,70,0.00,,,0.00,meteohub,2013-04-22 21:42:00,
2013-04-22 17:47:00,43.9,34.7,30.69,WSW,246,2.0,7.0,70,0.00,,,0.00,meteohub,2013-04-22 21:47:00,
2013-04-22 17:52:00,43.5,34.0,30.68,SW,219,9.0,9.0,69,0.00,,,0.00,meteohub,2013-04-22 21:52:00,
2013-04-22 17:57:00,43.3,33.8,30.68,South,188,3.0,9.0,69,0.00,,,0.00,meteohub,2013-04-22 21:57:00,
2013-04-22 18:02:00,43.2,33.6,30.68,East,96,3.0,9.0,69,0.00,,,0.00,meteohub,2013-04-22 22:02:00,
2013-04-22 18:07:00,43.0,33.8,30.68,NE,44,0.0,9.0,70,0.00,,,0.00,meteohub,2013-04-22 22:07:00,
2013-04-22 18:12:00,43.0,33.8,30.69,North,355,2.0,11.0,70,0.00,,,0.00,meteohub,2013-04-22 22:12:00,
2013-04-22 18:17:00,42.8,33.6,30.68,East,98,2.0,11.0,70,0.00,,,0.00,meteohub,2013-04-22 22:17:00,
2013-04-22 18:22:00,42.6,33.1,30.68,East,88,1.0,6.0,69,0.00,,,0.00,meteohub,2013-04-22 22:22:00,
2013-04-22 18:27:00,42.6,33.4,30.68,ENE,70,7.0,7.0,70,0.00,,,0.00,meteohub,2013-04-22 22:27:00,
2013-04-22 18:32:00,42.4,33.4,30.68,WNW,302,3.0,8.0,70,0.00,,,0.00,meteohub,2013-04-22 22:32:00,
2013-04-22 18:37:00,42.4,33.4,30.69,SSE,165,1.0,8.0,70,0.00,,,0.00,meteohub,2013-04-22 22:37:00,
2013-04-22 18:42:00,42.3,33.3,30.68,SW,220,2.0,8.0,70,0.00,,,0.00,meteohub,2013-04-22 22:42:00,
2013-04-22 18:47:00,42.1,33.1,30.67,ENE,68,3.0,9.0,70,0.00,,,0.00,meteohub,2013-04-22 22:47:00,
2013-04-22 18:52:00,42.1,33.1,30.67,SE,130,1.0,9.0,70,0.00,,,0.00,meteohub,2013-04-22 22:52:00,
2013-04-22 18:57:00,41.7,33.1,30.67,ENE,57,2.0,9.0,71,0.00,,,0.00,meteohub,2013-04-22 22:57:00,
2013-04-22 19:02:00,41.7,33.1,30.66,East,100,2.0,9.0,71,0.00,,,0.00,meteohub,2013-04-22 23:02:00,
2013-04-22 19:07:00,41.5,33.3,30.66,SSW,192,2.0,9.0,72,0.00,,,0.00,meteohub,2013-04-22 23:07:00,
2013-04-22 19:12:00,41.5,33.3,30.66,East,90,2.0,7.0,72,0.00,,,0.00,meteohub,2013-04-22 23:12:00,
2013-04-22 19:17:00,41.4,33.1,30.66,ENE,58,3.0,7.0,72,0.00,,,0.00,meteohub,2013-04-22 23:17:00,
2013-04-22 19:22:00,41.4,33.4,30.66,East,88,3.0,6.0,73,0.00,,,0.00,meteohub,2013-04-22 23:22:00,
2013-04-22 19:27:00,41.4,33.4,30.67,ENE,71,5.0,9.0,73,0.00,,,0.00,meteohub,2013-04-22 23:27:00,
2013-04-22 19:32:00,41.2,33.3,30.67,South,178,1.0,9.0,73,0.00,,,0.00,meteohub,2013-04-22 23:32:00,
2013-04-22 19:37:00,41.2,33.4,30.67,South,171,3.0,9.0,74,0.00,,,0.00,meteohub,2013-04-22 23:37:00,
2013-04-22 19:42:00,41.2,33.4,30.67,WSW,257,5.0,7.0,74,0.00,,,0.00,meteohub,2013-04-22 23:42:00,
2013-04-22 19:47:00,41.0,33.4,30.68,SSE,163,1.0,7.0,74,0.00,,,0.00,meteohub,2013-04-22 23:47:00,
2013-04-22 19:52:00,40.8,33.3,30.67,WNW,287,2.0,5.0,74,0.00,,,0.00,meteohub,2013-04-22 23:52:00,
2013-04-22 19:57:00,40.8,33.3,30.67,South,184,4.0,8.0,74,0.00,,,0.00,meteohub,2013-04-22 23:57:00,
2013-04-22 20:02:00,40.6,33.1,30.67,NE,55,2.0,8.0,74,0.00,,,0.00,meteohub,2013-04-23 00:02:00,
2013-04-22 20:07:00,40.6,33.3,30.67,NW,311,1.0,8.0,75,0.00,,,0.00,meteohub,2013-04-23 00:07:00,
2013-04-22 20:12:00,40.6,33.3,30.67,East,92,5.0,8.0,75,0.00,,,0.00,meteohub,2013-04-23 00:12:00,
2013-04-22 20:17:00,40.6,33.3,30.67,SE,136,2.0,10.0,75,0.00,,,0.00,meteohub,2013-04-23 00:17:00,
2013-04-22 20:22:00,40.6,33.1,30.66,East,96,1.0,10.0,74,0.00,,,0.00,meteohub,2013-04-23 00:22:00,
2013-04-22 20:27:00,40.5,32.9,30.66,SE,142,1.0,10.0,74,0.00,,,0.00,meteohub,2013-04-23 00:27:00,
2013-04-22 20:32:00,40.5,33.1,30.67,SSW,210,2.0,6.0,75,0.00,,,0.00,meteohub,2013-04-23 00:32:00,
2013-04-22 20:37:00,40.5,33.1,30.67,East,89,0.0,6.0,75,0.00,,,0.00,meteohub,2013-04-23 00:37:00,
2013-04-22 20:42:00,40.5,33.1,30.67,SSW,203,3.0,4.0,75,0.00,,,0.00,meteohub,2013-04-23 00:42:00,
2013-04-22 20:47:00,40.5,33.1,30.67,ENE,78,2.0,4.0,75,0.00,,,0.00,meteohub,2013-04-23 00:47:00,
2013-04-22 20:52:00,40.5,33.1,30.67,East,79,1.0,4.0,75,0.00,,,0.00,meteohub,2013-04-23 00:52:00,
2013-04-22 20:57:00,40.5,33.4,30.67,East,79,0.0,5.0,76,0.00,,,0.00,meteohub,2013-04-23 00:57:00,
2013-04-22 21:02:00,40.5,33.4,30.66,ESE,123,0.0,5.0,76,0.00,,,0.00,meteohub,2013-04-23 01:02:00,
2013-04-22 21:07:00,40.5,33.4,30.66,SSE,165,0.0,6.0,76,0.00,,,0.00,meteohub,2013-04-23 01:07:00,
2013-04-22 21:12:00,40.3,33.3,30.66,East,96,0.0,6.0,76,0.00,,,0.00,meteohub,2013-04-23 01:12:00,
2013-04-22 21:17:00,40.3,33.3,30.66,SE,130,1.0,6.0,76,0.00,,,0.00,meteohub,2013-04-23 01:17:00,
2013-04-22 21:22:00,40.3,33.6,30.66,NNE,20,0.0,7.0,77,0.00,,,0.00,meteohub,2013-04-23 01:22:00,
2013-04-22 21:27:00,40.3,33.6,30.66,ENE,77,1.0,7.0,77,0.00,,,0.00,meteohub,2013-04-23 01:27:00,
2013-04-22 21:32:00,40.5,33.8,30.66,SSW,198,1.0,7.0,77,0.00,,,0.00,meteohub,2013-04-23 01:32:00,
2013-04-22 21:37:00,40.5,33.8,30.66,SW,233,0.0,7.0,77,0.00,,,0.00,meteohub,2013-04-23 01:37:00,
2013-04-22 21:42:00,40.5,33.8,30.66,East,79,2.0,7.0,77,0.00,,,0.00,meteohub,2013-04-23 01:42:00,
2013-04-22 21:47:00,40.3,33.6,30.66,SE,142,0.0,5.0,77,0.00,,,0.00,meteohub,2013-04-23 01:47:00,
2013-04-22 21:52:00,40.3,33.6,30.65,SSW,209,1.0,5.0,77,0.00,,,0.00,meteohub,2013-04-23 01:52:00,
2013-04-22 21:57:00,40.3,33.6,30.65,South,187,2.0,6.0,77,0.00,,,0.00,meteohub,2013-04-23 01:57:00,
2013-04-22 22:02:00,40.3,33.6,30.65,West,275,2.0,6.0,77,0.00,,,0.00,meteohub,2013-04-23 02:02:00,
2013-04-22 22:07:00,40.1,33.4,30.65,ESE,107,2.0,6.0,77,0.00,,,0.00,meteohub,2013-04-23 02:07:00,
2013-04-22 22:12:00,40.1,33.4,30.65,SE,143,2.0,4.0,77,0.00,,,0.00,meteohub,2013-04-23 02:12:00,
2013-04-22 22:17:00,40.1,33.4,30.64,ENE,77,0.0,5.0,77,0.00,,,0.00,meteohub,2013-04-23 02:17:00,
2013-04-22 22:22:00,39.9,33.3,30.64,SE,126,0.0,5.0,77,0.00,,,0.00,meteohub,2013-04-23 02:22:00,
2013-04-22 22:27:00,39.9,33.3,30.64,East,89,1.0,5.0,77,0.00,,,0.00,meteohub,2013-04-23 02:27:00,
2013-04-22 22:32:00,39.9,33.3,30.64,East,96,1.0,4.0,77,0.00,,,0.00,meteohub,2013-04-23 02:32:00,
2013-04-22 22:37:00,39.9,33.3,30.64,SSW,197,0.0,5.0,77,0.00,,,0.00,meteohub,2013-04-23 02:37:00,
2013-04-22 22:42:00,39.9,33.6,30.64,East,93,2.0,5.0,78,0.00,,,0.00,meteohub,2013-04-23 02:42:00,
2013-04-22 22:47:00,39.9,33.6,30.64,SSW,210,3.0,5.0,78,0.00,,,0.00,meteohub,2013-04-23 02:47:00,
2013-04-22 22:52:00,39.9,33.6,30.64,SW,224,0.0,5.0,78,0.00,,,0.00,meteohub,2013-04-23 02:52:00,
2013-04-22 22:57:00,39.9,33.6,30.63,SW,223,1.0,5.0,78,0.00,,,0.00,meteohub,2013-04-23 02:57:00,
2013-04-22 23:02:00,39.9,33.6,30.64,East,98,1.0,3.0,78,0.00,,,0.00,meteohub,2013-04-23 03:02:00,
2013-04-22 23:07:00,39.9,33.6,30.64,NE,46,2.0,5.0,78,0.00,,,0.00,meteohub,2013-04-23 03:07:00,
2013-04-22 23:12:00,39.9,33.6,30.63,SW,227,1.0,5.0,78,0.00,,,0.00,meteohub,2013-04-23 03:12:00,
2013-04-22 23:17:00,40.1,33.8,30.63,SSE,157,2.0,5.0,78,0.00,,,0.00,meteohub,2013-04-23 03:17:00,
2013-04-22 23:22:00,40.3,34.0,30.63,SSE,151,4.0,6.0,78,0.00,,,0.00,meteohub,2013-04-23 03:22:00,
2013-04-22 23:27:00,40.3,34.3,30.63,North,5,1.0,6.0,79,0.00,,,0.00,meteohub,2013-04-23 03:27:00,
2013-04-22 23:32:00,40.5,34.5,30.63,SSW,210,1.0,7.0,79,0.00,,,0.00,meteohub,2013-04-23 03:32:00,
2013-04-22 23:37:00,40.5,34.5,30.62,SSE,147,2.0,7.0,79,0.00,,,0.00,meteohub,2013-04-23 03:37:00,
2013-04-22 23:42:00,40.5,34.5,30.62,WNW,297,1.0,7.0,79,0.00,,,0.00,meteohub,2013-04-23 03:42:00,
2013-04-22 23:47:00,40.5,34.5,30.62,East,96,2.0,7.0,79,0.00,,,0.00,meteohub,2013-04-23 03:47:00,
2013-04-22 23:52:00,40.6,34.7,30.61,WSW,239,1.0,4.0,79,0.00,,,0.00,meteohub,2013-04-23 03:52:00,
2013-04-22 23:57:00,40.6,34.7,30.61,South,176,1.0,5.0,79,0.00,,,0.00,meteohub,2013-04-23 03:57:00,